This is the latest recevied weather packets stored in our database for station/object IZ1MEU-13. If no packets are shown the sender has not sent any weather packets the latest 10 day(s).
| Time | Temp. | Humidity | Pressure | Rain* | Wind** | Luminosity | Snow |
|---|---|---|---|---|---|---|---|
| 1778232344 | 15° C | 56% | 1019.2 hPa | - | - | - | - |
| 1778231140 | 15° C | 56% | 1019.1 hPa | - | - | - | - |
| 1778229936 | 15° C | 56% | 1019 hPa | - | - | - | - |
| 1778228732 | 13.89° C | 57% | 1018.9 hPa | - | - | - | - |
| 1778227529 | 13.89° C | 57% | 1018.8 hPa | - | - | - | - |
| 1778226325 | 14.44° C | 57% | 1018.5 hPa | - | - | - | - |
| 1778225121 | 14.44° C | 57% | 1018.3 hPa | - | - | - | - |
| 1778223917 | 13.89° C | 58% | 1018.1 hPa | - | - | - | - |
| 1778222714 | 13.89° C | 58% | 1018 hPa | - | - | - | - |
| 1778221510 | 13.33° C | 59% | 1018 hPa | - | - | - | - |
| 1778220306 | 12.22° C | 61% | 1017.8 hPa | - | - | - | - |
| 1778219102 | 11.67° C | 61% | 1017.6 hPa | - | - | - | - |
| 1778217898 | 11.11° C | 61% | 1017.5 hPa | - | - | - | - |
| 1778216695 | 10.56° C | 62% | 1017.4 hPa | - | - | - | - |
| 1778215491 | 10° C | 63% | 1017.2 hPa | - | - | - | - |
| 1778214287 | 10° C | 63% | 1017 hPa | - | - | - | - |
| 1778213083 | 10° C | 63% | 1016.8 hPa | - | - | - | - |
| 1778211880 | 10° C | 63% | 1016.6 hPa | - | - | - | - |
| 1778210676 | 10.56° C | 62% | 1016.7 hPa | - | - | - | - |
| 1778209472 | 10.56° C | 62% | 1016.6 hPa | - | - | - | - |
| 1778208269 | 10.56° C | 62% | 1016.6 hPa | - | - | - | - |
| 1778207065 | 10.56° C | 62% | 1016.6 hPa | - | - | - | - |
| 1778205861 | 11.67° C | 61% | 1016.6 hPa | - | - | - | - |
| 1778204657 | 10.56° C | 63% | 1016.6 hPa | - | - | - | - |
| 1778203453 | 10.56° C | 63% | 1016.6 hPa | - | - | - | - |
* Rain since midnight (hover to see other rain measurements)
** Current wind speed in m/s (hover to see current wind gust speed)